Location: Newark
(43.0000°N, 1.6781°W)
Time: 08:31:37
(UTC+00:00)

Courier 1B Rocket - Pass Details

Date: 19 April 2021
Orbit: 920 x 1202 km, 28.2° (Epoch: 09 May)

Event Time Altitude Azimuth Distance (km) Brightness Sun altitude
Rises 21:44:26 0° 243° (WSW) 3,789 8.2 -26.7°
Reaches altitude 10° 21:47:35 10° 231° (SW) 2,885 7.4 -27.0°
Enters shadow 21:49:54 18° 215° (SW) 2,369 6.8 -27.3°
